KB5PRZ Weather Reports


time (UTC)temp
F
wind
direction
speed
knots
gust
knots
rain 1hr
in
rain 24hr
in
rain mn
in
humidity
%
barometer
mb
20210920061814 79 195 3.5 6.1 0.00 0.00 0.00 63 1007.0
20210920060817 79 166 1.7 5.2 0.00 0.00 0.00 62 1007.2
20210920055913 79 137 5.2 11.3 0.00 0.00 0.00 61 1007.2
20210920054915 79 156 2.6 6.1 0.00 0.00 0.00 60 1007.1
20210920053915 80 159 4.3 6.1 0.00 0.00 0.00 58 1007.1
20210920052913 80 134 2.6 6.1 0.00 0.00 0.00 57 1006.9
20210920051916 81 179 0.9 7.0 0.00 0.00 0.00 56 1006.9
20210920050915 81 284 0.9 7.0 0.00 0.00 0.00 55 1007.1
20210920045919 81 148 6.1 8.7 0.00 0.00 0.00 54 1007.1
20210920044920 82 155 3.5 8.7 0.00 0.00 0.00 53 1007.0
20210920043919 82 223 3.5 11.3 0.00 0.00 0.00 52 1006.9
20210920043017 83 172 6.1 9.6 0.00 0.00 0.00 51 1006.9
20210920042020 83 155 7.8 10.4 0.00 0.00 0.00 50 1006.8
20210920041118 84 142 3.5 7.0 0.00 0.00 0.00 50 1006.8
20210920040118 84 144 3.5 5.2 0.00 0.00 0.00 50 1006.6
20210920035120 84 131 2.6 4.3 0.00 0.00 0.00 49 1006.6
20210920034217 84 117 1.7 3.5 0.00 0.00 0.00 48 1006.6
20210920033218 84 157 2.6 5.2 0.00 0.00 0.00 48 1006.6
20210920032217 84 162 3.5 6.1 0.00 0.00 0.00 47 1006.6
20210920031217 85 150 1.7 5.2 0.00 0.00 0.00 46 1006.7
20210920030217 85 124 0.9 2.6 0.00 0.00 0.00 45 1006.5
20210920025317 86 130 3.5 5.2 0.00 0.00 0.00 45 1006.4
20210920024317 87 137 2.6 6.1 0.00 0.00 0.00 44 1006.3
20210920023320 87 128 1.7 6.1 0.00 0.00 0.00 43 1006.1
20210920022418 88 199 3.5 7.0 0.00 0.00 0.00 43 1006.0
20210920021418 88 161 2.6 6.1 0.00 0.00 0.00 42 1005.9
20210920020418 88 191 1.7 6.1 0.00 0.00 0.00 42 1005.8
20210920015517 88 189 5.2 9.6 0.00 0.00 0.00 41 1005.5
20210920014519 88 204 2.6 9.6 0.00 0.00 0.00 40 1005.5
20210920013617 88 189 2.6 6.1 0.00 0.00 0.00 40 1005.4
20210920012618 89 162 3.5 6.1 0.00 0.00 0.00 39 1005.3
20210920011618 89 123 2.6 7.0 0.00 0.00 0.00 38 1005.2
20210920010618 90 347 0.9 6.1 0.00 0.00 0.00 38 1005.2
20210920005618 90 159 1.7 5.2 0.00 0.00 0.00 37 1005.2
20210920004618 91 184 1.7 7.8 0.00 0.00 0.00 36 1005.1
20210920003617 92 147 1.7 4.3 0.00 0.00 0.00 36 1005.0
20210920002618 93 40 0.9 3.5 0.00 0.00 0.00 35 1005.2
20210920001717 93 150 0.9 2.6 0.00 0.00 0.00 35 1005.1
20210920000718 94 138 3.5 6.1 0.00 0.00 0.00 35 1005.2
20210919235716 94 156 2.6 5.2 0.00 0.00 0.00 35 1005.0
20210919234718 95 135 2.6 4.3 0.00 0.00 0.00 34 1005.1
20210919233718 95 140 1.7 3.5 0.00 0.00 0.00 34 1005.0
20210919232719 96 134 1.7 3.5 0.00 0.00 0.00 34 1005.0
20210919231719 96 146 2.6 5.2 0.00 0.00 0.00 34 1004.9
20210919230718 97 146 3.5 6.1 0.00 0.00 0.00 34 1005.1
20210919225735 98 154 0.9 4.3 0.00 0.00 0.00 34 1005.2
20210919224817 97 123 2.6 5.2 0.00 0.00 0.00 35 1005.2
20210919223916 98 138 3.5 6.1 0.00 0.00 0.00 35 1005.1
20210919222918 99 135 0.9 2.6 0.00 0.00 0.00 35 1005.2
20210919221917 100 124 1.7 3.5 0.00 0.00 0.00 35 1005.3
20210919220917 99 78 0.0 0.9 0.00 0.00 0.00 36 1005.3
20210919215919 98 90 0.9 0.9 0.00 0.00 0.00 36 1005.2
20210919215834 98 132 0.9 3.5 0.00 0.00 0.00 36 1005.3
20210919214917 97 157 2.6 4.3 0.00 0.00 0.00 37 1005.3
20210919213918 98 136 3.5 5.2 0.00 0.00 0.00 37 1005.3
20210919213016 98 77 0.0 1.7 0.00 0.00 0.00 37 1005.4
20210919212018 97 83 1.7 2.6 0.00 0.00 0.00 38 1005.5
20210919211018 96 58 0.9 3.5 0.00 0.00 0.00 38 1005.5
20210919210036 96 360 0.0 0.9 0.00 0.00 0.00 39 1005.8
20210919205018 97 45 0.9 3.5 0.00 0.00 0.00 39 1005.9
20210919204018 98 104 0.0 1.7 0.00 0.00 0.00 40 1005.9
20210919203017 97 152 0.9 1.7 0.00 0.00 0.00 40 1006.1
20210919202017 96 166 2.6 5.2 0.00 0.00 0.00 41 1006.3
20210919201017 96 97 0.0 1.7 0.00 0.00 0.00 41 1006.5
20210919200017 95 329 1.7 3.5 0.00 0.00 0.00 42 1006.7
20210919195116 96 66 3.5 5.2 0.00 0.00 0.00 42 1006.9
20210919195017 96 23 3.5 5.2 0.00 0.00 0.00 43 1006.9
20210919194017 95 315 1.7 3.5 0.00 0.00 0.00 43 1006.9
20210919193017 95 155 0.9 4.3 0.00 0.00 0.00 44 1007.2
20210919192116 94 37 0.0 0.9 0.00 0.00 0.00 44 1007.4
20210919191117 93 59 1.7 3.5 0.00 0.00 0.00 45 1007.5
20210919190118 93 312 2.6 4.3 0.00 0.00 0.00 45 1007.9
20210919185119 93 316 5.2 7.0 0.00 0.00 0.00 46 1008.1
20210919184116 94 316 2.6 6.1 0.00 0.00 0.00 47 1008.3
20210919183117 94 206 1.7 5.2 0.00 0.00 0.00 47 1008.4
20210919182118 93 299 0.9 4.3 0.00 0.00 0.00 48 1008.6
20210919181118 92 76 1.7 2.6 0.00 0.00 0.00 49 1008.8
20210919180117 94 314 0.9 3.5 0.00 0.00 0.00 50 1009.1
20210919175216 95 189 2.6 4.3 0.00 0.00 0.00 51 1009.3
20210919174216 93 332 0.9 2.6 0.00 0.00 0.00 52 1009.6
20210919173216 93 135 2.6 4.3 0.00 0.00 0.00 53 1009.6
20210919172217 92 315 1.7 3.5 0.00 0.00 0.00 54 1010.0
20210919171216 92 45 0.9 1.7 0.00 0.00 0.00 55 1010.0
20210919170217 92 306 2.6 5.2 0.00 0.00 0.00 56 1010.0
20210919165316 92 196 0.9 2.6 0.00 0.00 0.00 57 1010.2
20210919164316 92 341 2.6 4.3 0.00 0.00 0.00 59 1010.2
20210919163316 91 215 0.0 0.0 0.00 0.00 0.00 60 1010.4
20210919162416 90 345 0.9 2.6 0.00 0.00 0.00 61 1010.3
20210919161418 88 21 0.0 0.9 0.00 0.00 0.00 62 1010.5
20210919160416 88 311 1.7 4.3 0.00 0.00 0.00 63 1010.5
20210919155418 88 284 2.6 4.3 0.00 0.00 0.00 64 1010.5
20210919154517 88 334 0.9 3.5 0.00 0.00 0.00 65 1010.7
20210919153616 87 84 0.0 1.7 0.00 0.00 0.00 66 1010.7
20210919153516 87 354 1.7 6.1 0.00 0.00 0.00 66 1010.6
20210919152517 87 213 0.9 2.6 0.00 0.00 0.00 67 1010.8
20210919151517 86 89 0.0 1.7 0.00 0.00 0.00 68 1010.7
20210919150516 85 340 0.9 2.6 0.00 0.00 0.00 69 1010.6
20210919145517 84 78 0.0 1.7 0.00 0.00 0.00 69 1010.5
20210919144615 83 314 0.0 2.6 0.00 0.00 0.00 70 1010.5
20210919143617 83 307 2.6 4.3 0.00 0.00 0.00 71 1010.5
20210919142715 83 332 1.7 3.5 0.00 0.00 0.00 71 1010.4
20210919141718 82 45 0.0 0.9 0.00 0.00 0.00 72 1010.4
20210919140718 82 246 0.0 0.0 0.00 0.00 0.00 72 1010.3
20210919135716 80 270 0.0 0.0 0.00 0.00 0.00 73 1010.2
20210919134719 80 202 0.0 0.0 0.00 0.00 0.00 74 1010.1
20210919133717 79 315 0.0 1.7 0.00 0.00 0.00 74 1010.1
20210919132717 78 337 0.0 0.9 0.00 0.00 0.00 75 1010.1
20210919131718 77 337 1.7 2.6 0.00 0.00 0.00 75 1010.0
20210919130816 76 337 0.0 0.0 0.00 0.00 0.00 75 1009.9
20210919125817 76 360 0.9 1.7 0.00 0.00 0.00 75 1010.0
20210919124817 75 360 0.0 0.9 0.00 0.00 0.00 75 1009.8
20210919123815 74 22 0.0 0.0 0.00 0.00 0.00 75 1009.7
20210919122818 74 356 0.0 0.9 0.00 0.00 0.00 74 1009.5
20210919121915 75 324 0.9 3.5 0.00 0.00 0.00 74 1009.4
20210919120916 75 333 0.0 4.3 0.00 0.00 0.00 74 1009.3
20210919115916 75 308 1.7 5.2 0.00 0.00 0.00 73 1009.3
20210919114916 75 317 1.7 4.3 0.00 0.00 0.00 73 1009.3
20210919114015 76 311 3.5 6.1 0.00 0.00 0.00 73 1009.3
20210919113016 76 320 3.5 6.1 0.00 0.00 0.00 73 1009.3
20210919112115 76 319 1.7 4.3 0.00 0.00 0.00 72 1009.3
20210919111118 76 318 2.6 4.3 0.00 0.00 0.00 72 1009.3
20210919110215 76 321 3.5 5.2 0.00 0.00 0.00 72 1009.2
20210919105216 77 324 3.5 5.2 0.00 0.00 0.00 72 1009.1
20210919104218 77 318 4.3 6.1 0.00 0.00 0.00 72 1009.3
20210919103316 77 315 3.5 5.2 0.00 0.00 0.00 71 1009.3
20210919102315 77 313 3.5 4.3 0.00 0.00 0.00 71 1009.3
20210919101316 77 296 0.9 4.3 0.00 0.00 0.00 71 1009.2
20210919100315 77 299 3.5 4.3 0.00 0.00 0.00 71 1009.3
20210919095316 77 296 3.5 5.2 0.00 0.00 0.00 71 1009.4
20210919094316 76 293 2.6 5.2 0.00 0.00 0.00 70 1009.4
20210919093316 76 318 0.9 2.6 0.00 0.00 0.00 70 1009.4
20210919092317 77 318 0.0 3.5 0.00 0.00 0.00 70 1009.3
20210919091416 77 348 0.0 2.6 0.00 0.00 0.00 70 1009.6
20210919090515 77 325 2.6 3.5 0.00 0.00 0.00 70 1009.7
20210919085518 77 315 2.6 2.6 0.00 0.00 0.00 70 1009.9
20210919084516 77 315 1.7 2.6 0.00 0.00 0.00 69 1009.9
20210919083515 77 315 1.7 2.6 0.00 0.00 0.00 69 1010.0
20210919082516 77 337 2.6 3.5 0.00 0.00 0.00 69 1010.1
20210919081517 77 292 0.0 0.9 0.00 0.00 0.00 68 1010.2
20210919080517 77 270 0.0 0.0 0.00 0.00 0.00 68 1010.2
20210919075614 77 292 0.9 2.6 0.00 0.00 0.00 68 1010.2
20210919074615 78 196 0.0 1.7 0.00 0.00 0.00 68 1010.2
20210919073616 78 292 0.0 0.0 0.00 0.00 0.00 67 1010.3
20210919072617 78 264 0.0 1.7 0.00 0.00 0.00 67 1010.3
20210919071617 78 261 0.0 1.7 0.00 0.00 0.00 67 1010.2
20210919070615 78 192 1.7 4.3 0.00 0.00 0.00 67 1010.2
20210919065616 78 198 3.5 7.0 0.00 0.00 0.00 66 1010.5
20210919064614 78 197 3.5 7.0 0.00 0.00 0.00 66 1010.5
20210919063617 78 184 2.6 5.2 0.00 0.00 0.00 66 1010.5
20210919062614 79 189 2.6 4.3 0.00 0.00 0.00 65 1010.4